Flag for U.S.A. Weather past 2 weeks in Kodiak, Alaska, U.S.A.

Now
47 °F

Clear.


Feels Like: 47 °F
Forecast: 48 / 65 °F
Wind: No wind

Location: Kodiak Weather Reporting Station

Current Time: Aug 20, 2014 at 4:44:08 AM

Latest Report: Aug 20, 2014 at 3:53 AM


Visibility: 10 mi

Pressure: 30.04 "Hg

Humidity: 90%

Dew point: 44 °F

Location of KodiakLocation

Historic Weather in Kodiak — Graph

°F

Kodiak temperature yesterday

Maximum temperature yesterday: 62 °F (at 3:53 PM)
Minimum temperature yesterday: 48 °F (at 4:53 AM)
Average temperature yesterday: 55 °F

Past Weeks' High & Low Weather Summary

 TemperatureHumidityPressure
High68 °F (Aug 18, 4:53 PM)100% (Aug 5, 2:53 AM)30.04 "Hg (Aug 5, 2:53 AM)
Low48 °F (Aug 17, 4:53 AM)42% (Aug 18, 4:53 PM)29.33 "Hg (Aug 8, 6:53 PM)
Average57 °F88%29.62 "Hg
* Reported Aug 5 2:53 AM — Aug 20 2:53 AM, Kodiak, Weather by CustomWeather, © 2014

Note: Actual official high and low records may vary slightly from our data, if they occured in-between our weather recording intervals... More about our weather records

Advertising

Kodiak weather history for previous 24 hours

 ConditionsComfort  
Time TempWeatherWind HumidityBarometerVisibility
2:53 AM
Aug 20
49 °FClear.5 mph86%30.04 "Hg10 mi
1:53 AM48 °FClear.7 mph86%30.03 "Hg10 mi
12:53 AM48 °FPassing clouds.6 mph86%30.02 "Hg10 mi
11:53 PM
Aug 19
50 °FPassing clouds.7 mph86%30.02 "Hg10 mi
10:53 PM52 °FPartly cloudy.6 mph83%30.01 "Hg10 mi
9:53 PM55 °FBroken clouds.No wind80%30.01 "Hg10 mi
8:53 PM57 °FBroken clouds.3 mph78%30.00 "Hg10 mi
7:53 PM59 °FBroken clouds.No wind69%30.00 "Hg10 mi
6:53 PM60 °FBroken clouds.3 mph69%30.00 "Hg10 mi
5:53 PM60 °FBroken clouds.6 mph72%30.01 "Hg10 mi
4:53 PM60 °FBroken clouds.3 mph72%30.01 "Hg10 mi
3:53 PM62 °FBroken clouds.6 mph65%30.02 "Hg10 mi
2:53 PM60 °FBroken clouds.7 mph72%30.01 "Hg10 mi
1:53 PM60 °FPartly sunny.6 mph69%30.01 "Hg10 mi
12:53 PM60 °FPartly sunny.5 mph67%30.01 "Hg10 mi
11:53 AM59 °FBroken clouds.3 mph72%30.01 "Hg10 mi
10:53 AM59 °FPartly sunny.3 mph67%30.01 "Hg10 mi
9:53 AM57 °FSunny.No wind74%30.00 "Hg10 mi
8:53 AM53 °FPartly sunny.3 mph83%30.01 "Hg10 mi
7:53 AM50 °FPartly sunny.5 mph86%30.01 "Hg10 mi
6:53 AM48 °FPassing clouds.8 mph89%30.00 "Hg10 mi
5:53 AM48 °FClear.8 mph89%30.01 "Hg10 mi
4:53 AM48 °FClear.8 mph89%30.02 "Hg10 mi
Weather by CustomWeather, © 2014

See weather overviewHow to use our weather pages